New Bern, NC

1:39 PM EST on November 23, 2017 (GMT -0500)
Craven County Regional

Weather History for KEWN - November, 2013

Change the Weather History Date:

Tuesday, November 12, 2013

  Actual Average Record
Temperature  
Mean Temperature 51 °F 56 °F  
Max Temperature 68 °F 68 °F 83 °F (1989)
Min Temperature 34 °F 45 °F 27 °F (1973)
Degree Days  
Heating Degree Days 14 9  
Month to date heating degree days 95 96  
Since 1 July heating degree days 171 213  
Cooling Degree Days 0 1  
Month to date cooling degree days 11 12  
Year to date cooling degree days 2001 1897  
Moisture  
Dew Point 35 °F    
Average Humidity 62    
Maximum Humidity 92    
Minimum Humidity 32    
Precipitation  
Precipitation T in 0.11 in 2.86 in (2009)
Month to date precipitation 1.28 1.31  
Year to date precipitation 37.11 47.26  
Snow  
Snow T in - - ()
Month to date snowfall T  
Since 1 July snowfall T  
Snow Depth 0.00 in    
Sea Level Pressure  
Sea Level Pressure 30.18 in    
Wind  
Wind Speed 10 mph (North)    
Max Wind Speed 28 mph    
Max Gust Speed 36 mph    
Visibility 9 miles    
Events Snow    
T = Trace of Precipitation, MM = Missing Value Source: NWS Daily Summary

Daily Weather History Graph

Daily Weather History Graph

Search for Another Location

Airport or City:

Trip Planner

Search our weather history database for the weather conditions in past years. The results will help you decide how hot, cold, wet, or windy it might be!

Date:

Astronomy

Nov. 12, 2013 Rise Set
Actual Time 6:40 AM EST 5:04 PM EST
Civil Twilight 6:13 AM EST 5:31 PM EST
Nautical Twilight 5:42 AM EST 6:01 PM EST
Astronomical Twilight 5:12 AM EST 6:31 PM EST
Moon 2:07 PM EST (11/12) 1:38 AM EST (11/12)
Length of Visible Light 11h 17m
Length of Day
10h 24m
Waxing Gibbous, 76% of the Moon is Illuminated
Nov 12
Waxing Gibbous
Nov 17
Full
Nov 25
Last Quarter
Dec 2
New
Dec 9
First Quarter

Hourly Weather History & Observations

Time (EST) Temp. Windchill Dew Point Humidity Pressure Visibility Wind Dir Wind Speed Gust Speed Precip Events Conditions
12:54 AM 39.0 °F - 37.0 °F 93% 30.16 in 10.0 mi Calm Calm - N/A   Clear
1:54 AM 37.9 °F - 36.0 °F 93% 30.13 in 9.0 mi Calm Calm - N/A   Clear
2:54 AM 37.0 °F - 35.1 °F 93% 30.12 in 10.0 mi Calm Calm - N/A   Clear
3:54 AM 37.0 °F - 34.0 °F 89% 30.10 in 10.0 mi Calm Calm - N/A   Clear
4:54 AM 37.9 °F - 35.1 °F 89% 30.10 in 10.0 mi Calm Calm - N/A   Clear
5:54 AM 39.0 °F - 37.0 °F 93% 30.11 in 10.0 mi Calm Calm - N/A   Clear
6:54 AM 39.0 °F - 37.0 °F 93% 30.11 in 6.0 mi Calm Calm - N/A   Clear
7:54 AM 46.9 °F - 42.1 °F 83% 30.10 in 10.0 mi SW 5.8 mph - N/A   Clear
8:54 AM 53.1 °F - 44.1 °F 71% 30.10 in 10.0 mi SW 5.8 mph - N/A   Clear
9:54 AM 60.1 °F - 41.0 °F 49% 30.10 in 10.0 mi WNW 6.9 mph - N/A   Clear
10:54 AM 64.0 °F - 39.0 °F 40% 30.08 in 10.0 mi West 8.1 mph - N/A   Clear
11:54 AM 66.0 °F - 39.9 °F 38% 30.05 in 10.0 mi West 9.2 mph 16.1 mph N/A   Clear
12:54 PM 68.0 °F - 37.9 °F 33% 30.04 in 10.0 mi NNW 8.1 mph 18.4 mph N/A   Clear
1:54 PM 64.9 °F - 37.9 °F 37% 30.05 in 10.0 mi North 11.5 mph - N/A   Clear
2:54 PM 63.0 °F - 39.0 °F 41% 30.08 in 10.0 mi NNE 16.1 mph 20.7 mph N/A   Scattered Clouds
3:54 PM 57.9 °F - 39.0 °F 49% 30.11 in 10.0 mi NNE 15.0 mph 27.6 mph N/A   Mostly Cloudy
4:45 PM 51.8 °F - 37.4 °F 58% 30.15 in 10.0 mi NNE 21.9 mph 29.9 mph N/A   Overcast
4:54 PM 51.1 °F - 37.9 °F 61% 30.15 in 10.0 mi NNE 19.6 mph 27.6 mph N/A   Overcast
5:54 PM 46.9 °F - 32.0 °F 56% 30.20 in 10.0 mi North 25.3 mph 32.2 mph N/A   Overcast
6:54 PM 45.0 °F 38.2 °F 27.0 °F 49% 30.25 in 10.0 mi North 15.0 mph 25.3 mph N/A   Overcast
7:54 PM 42.1 °F 33.1 °F 24.1 °F 49% 30.29 in 10.0 mi NNE 20.7 mph 31.1 mph N/A   Overcast
8:54 PM 39.9 °F 30.8 °F 25.0 °F 55% 30.33 in 10.0 mi North 18.4 mph 25.3 mph N/A   Overcast
9:54 PM 37.0 °F 27.7 °F 28.0 °F 70% 30.36 in 7.0 mi North 16.1 mph 27.6 mph 0.00 in Snow Light Snow
10:54 PM 36.0 °F 27.5 °F 30.0 °F 79% 30.36 in 9.0 mi North 12.7 mph 19.6 mph 0.00 in Snow Light Snow
11:40 PM 33.8 °F 24.8 °F 30.2 °F 87% 30.38 in 2.0 mi North 12.7 mph - 0.00 in Snow Light Snow
11:47 PM 33.8 °F 25.3 °F 30.2 °F 87% 30.39 in 1.8 mi North 11.5 mph - 0.00 in Snow Light Snow
11:54 PM 34.0 °F 24.6 °F 30.9 °F 89% 30.39 in 2.0 mi North 13.8 mph - 0.00 in Snow Light Snow